TimeCST,TemperatureF,Dew PointF,Humidity,Sea Level PressureIn,VisibilityMPH,Wind Direction,Wind SpeedMPH,Gust SpeedMPH,PrecipitationIn,Events,Conditions,WindDirDegrees,DateUTC
12:53 AM,30.9,23.0,72,30.31,10.0,West,3.5,-,N/A,,Clear,260,2013-03-06 06:53:00
1:53 AM,30.0,24.1,79,30.34,10.0,Calm,Calm,-,N/A,,Clear,0,2013-03-06 07:53:00
2:53 AM,28.9,25.0,85,30.33,10.0,Calm,Calm,-,N/A,,Clear,0,2013-03-06 08:53:00
3:53 AM,27.0,24.1,89,30.34,10.0,Variable,3.5,-,N/A,,Clear,0,2013-03-06 09:53:00
4:53 AM,25.0,23.0,92,30.36,10.0,Calm,Calm,-,N/A,,Clear,0,2013-03-06 10:53:00
5:53 AM,25.0,21.9,88,30.38,10.0,Calm,Calm,-,N/A,,Clear,0,2013-03-06 11:53:00
6:53 AM,26.1,21.9,84,30.38,10.0,Calm,Calm,-,N/A,,Clear,0,2013-03-06 12:53:00
7:53 AM,32.0,26.1,79,30.40,10.0,SW,3.5,-,N/A,,Clear,230,2013-03-06 13:53:00
8:53 AM,37.9,21.9,53,30.41,10.0,Variable,3.5,-,N/A,,Clear,0,2013-03-06 14:53:00
9:53 AM,43.0,18.0,37,30.42,10.0,Calm,Calm,-,N/A,,Clear,0,2013-03-06 15:53:00
10:53 AM,48.0,17.1,29,30.40,10.0,Variable,3.5,-,N/A,,Clear,0,2013-03-06 16:53:00
11:53 AM,53.1,14.0,21,30.38,10.0,Calm,Calm,-,N/A,,Clear,0,2013-03-06 17:53:00
12:53 PM,57.0,16.0,20,30.33,10.0,Calm,Calm,-,N/A,,Clear,0,2013-03-06 18:53:00
1:53 PM,57.0,14.0,18,30.29,10.0,Calm,Calm,-,N/A,,Clear,0,2013-03-06 19:53:00
2:53 PM,60.1,12.9,16,30.27,10.0,Calm,Calm,-,N/A,,Clear,0,2013-03-06 20:53:00
3:53 PM,60.1,17.1,19,30.25,10.0,SW,5.8,-,N/A,,Clear,230,2013-03-06 21:53:00
4:53 PM,60.1,17.1,19,30.25,10.0,WSW,8.1,-,N/A,,Clear,250,2013-03-06 22:53:00
5:53 PM,55.9,19.0,24,30.24,10.0,SW,4.6,-,N/A,,Clear,230,2013-03-06 23:53:00
6:53 PM,50.0,23.0,35,30.25,10.0,Calm,Calm,-,N/A,,Clear,0,2013-03-07 00:53:00
7:53 PM,44.1,28.9,55,30.25,9.0,Calm,Calm,-,N/A,,Clear,0,2013-03-07 01:53:00
8:53 PM,42.1,32.0,67,30.23,5.0,Calm,Calm,-,N/A,,Haze,0,2013-03-07 02:53:00
9:53 PM,41.0,32.0,70,30.26,5.0,East,3.5,-,N/A,,Haze,80,2013-03-07 03:53:00
10:53 PM,37.0,30.9,79,30.26,5.0,Calm,Calm,-,N/A,,Haze,0,2013-03-07 04:53:00
11:00 PM,37.0,32.0,82,30.25,1.8,Calm,Calm,-,N/A,,Haze,0,2013-03-07 05:00:00
11:21 PM,36.0,32.0,86,30.25,2.5,Calm,Calm,-,N/A,,Clear,0,2013-03-07 05:21:00
11:33 PM,36.0,32.0,86,30.25,1.8,Calm,Calm,-,N/A,,Clear,0,2013-03-07 05:33:00
11:42 PM,37.0,30.9,79,30.25,3.0,East,3.5,-,N/A,,Haze,80,2013-03-07 05:42:00
11:53 PM,36.0,30.9,82,30.25,2.5,East,3.5,-,N/A,,Haze,80,2013-03-07 05:53:00